Location: *
(50.9167°S, 179.4000°W)
Time: 20:47:45
(UTC+00:00)

Cosmos 2369 Rocket - Pass Details

Date: 03 March 2024
Orbit: 829 x 851 km, 71.0° (Epoch: 16 April)

Event Time Altitude Azimuth Distance (km) Brightness Sun altitude
Rises 13:11:49 0° 211° (SSW) 3,420 5.9 -31.0°
Reaches altitude 10° 13:14:16 10° 211° (SSW) 2,482 5.1 -30.9°
Enters shadow 13:18:27 51° 219° (SW) 1,067 2.8 -30.7°
